Regional Weather Roundup
Issued by NWS

Home | Current Version | Previous Version | Graphics & Text | Print | Product List | Glossary On
Versions: 1 2 3 4 5 6 7 8 9 10 11 12 13 14 15 16 17 18 19 20 21 22 23 24 25 26 27 28 29 30 31 32 33 34 35 36 37 38 39 40 41 42 43 44 45 46 47 48 49 50
295
ASUS45 KBOU 182110
RWRCO

WEATHER ROUNDUP FOR COLORADO
NATIONAL WEATHER SERVICE DENVER/BOULDER CO
200 PM MST THU JAN 18 2018

NOTE: "FAIR" INDICATES FEW OR NO CLOUDS BELOW 12000 FEET WITH NO
SIGNIFICANT WEATHER AND/OR OBSTRUCTIONS TO VISIBILITY.

COZ001>005-013-030-031-182200-
...NORTHWEST COLORADO...

CITY           SKY/WX    TMP DP  RH WIND       PRES   REMARKS
CRAIG          FAIR      39  18  42 E7        30.20F
HAYDEN         FAIR     N/A N/A N/A SE9       30.22F
MEEKER         FAIR      45  23  42 CALM      30.18F
RABBIT EARS PA FAIR      32  16  51 SW6       30.26S WCI  26
STEAMBOAT SPGS FAIR      29  16  58 CALM      30.22F
WALDEN         FAIR      39  12  33 S12       30.20F
$$

COZ006>008-011-182200-
...WEST CENTRAL VALLEYS...

CITY           SKY/WX    TMP DP  RH WIND       PRES   REMARKS
GRAND JUNCTION FAIR      46  15  28 S5        30.22F
MONTROSE       FAIR      44  13  28 N3        30.24F
EAGLE          FAIR      36  13  38 W6        30.27F
RIFLE          FAIR      41  18  39 CALM      30.23F
DELTA          FAIR      47  14  26 CALM      30.23F
NUCLA          FAIR      45  16  31 CALM      30.26F
$$

COZ017>023-064>068-182200-
...SOUTHWEST COLORADO...

CITY           SKY/WX    TMP DP  RH WIND       PRES   REMARKS
DURANGO        FAIR      45  17  32 VRB5      30.21F
CORTEZ         FAIR      45  20  36 S6        30.24F
PAGOSA SPRINGS FAIR      46   9  22 S6        30.22F
TELLURIDE      FAIR      45   9  22 W7        30.27F
WOLF CREEK PAS FAIR      36   5  27 NW3       30.37F
$$

COZ009-010-012-014-032>034-037-058>063-182200-
...CENTRAL COLORADO...

CITY           SKY/WX    TMP DP  RH WIND       PRES   REMARKS
ASPEN          FAIR      42  13  30 NW6       30.21F
BUENA VISTA    FAIR      51  -1  11 S7        30.15F
COPPER MTN     NOT AVBL
BERTHOUD PASS  FAIR      23  12  63 N7        30.31S WCI  15
COTTONWOOD PAS   N/A     52  -8   8 SE5       30.22F
GUNNISON       FAIR      33  10  38 CALM      30.28F
KREMMLING      FAIR      34  14  44 CALM      30.28F
LEADVILLE      FAIR      41   7  24 NW9       30.22F
MONARCH PASS   FAIR      32   5  32 W17       30.41S WCI  21
SALIDA         FAIR      54   4  13 SW10G16   30.21F
SUNLIGHT       FAIR      34  12  40 SW12      30.32F WCI  25
WILKERSON PASS FAIR      41   3  20 W9        30.26F
$$

COZ069>075-182200-
...SAN LUIS VALLEY/SANGRE DE CRISTO MOUNTAINS...

CITY           SKY/WX    TMP DP  RH WIND       PRES   REMARKS
ALAMOSA        FAIR      43   5  20 CALM      30.20F
DEL NORTE      FAIR      41   3  21 E6        30.21F
LA VETA PASS   FAIR      39   7  26 SW17G24     N/A
SAGUACHE       FAIR      41   9  26 S6        30.21F
$$

COZ035-036-038>040-182200-
...NORTHERN COLORADO FRONT RANGE...

CITY           SKY/WX    TMP DP  RH WIND       PRES   REMARKS
DENVER INTL AP PTSUNNY   61   6  11 SE5       29.98F
DMNS CITY PARK NOT AVBL
AURORA         PTSUNNY   62   2   9 CALM      29.98F
FRONT RANGE AP PTSUNNY   64   7  10 CALM      29.99F
ERIE MUNI ARPT FAIR      62  13  14 N5        30.01F
BOULDER MUN AP FAIR      59  18  20 CALM      29.96F
CENTENNIAL     PTSUNNY   63   5  10 S7        29.99F
BROOMFIELD     PTSUNNY   63   9  12 SE6       29.99F
FORT COLLINS   FAIR      52  23  32 CALM      29.98F
LONGMONT       FAIR      60  16  17 CALM      29.98F
$$

COZ041-046-047-076>085-087-088-182200-
...PIKES PEAK/PALMER DIVIDE AND SOUTHERN FOOTHILLS...

CITY           SKY/WX    TMP DP  RH WIND       PRES   REMARKS
COLO. SPRINGS  PTSUNNY   58   7  13 S7        30.05F
A. F. ACADEMY  FAIR      55   8  15 S7        30.04F
SCHRIEVER AFB  FAIR      56   4  12 SW6       30.05F
CHEYENNE MTN   FAIR      53   6  15 S12       30.01F
ELLICOTT         N/A    N/A N/A N/A SW8       30.04F
FALCON         FAIR      55   1  11 SW8       30.07F
FORT CARSON    FAIR      58   5  12 S9        30.02F
LIMON          FAIR      61   5  10 SW9       30.00F
MONUMENT HILL  FAIR      55   3  12 CALM      30.06F
CANON CITY     FAIR      64   9  11 W5        30.00F
WALSENBURG     FAIR      64   5   9 SW8       30.04F
TRINIDAD       FAIR      60   2   9 CALM      30.05F
$$

COZ042>045-048>051-090-091-182200-
...NORTHEAST COLORADO...

CITY           SKY/WX    TMP DP  RH WIND       PRES   REMARKS
GREELEY ARPT   FAIR      51  23  33 NW3       29.98F
AKRON          FAIR      59  24  26 W6        29.96F
BURLINGTON     FAIR      61  10  13 SW13      29.99F
WRAY           FAIR      64  14  14 SW7       29.94F
YUMA           FAIR      63  14  15 W8        29.94F
STERLING       FAIR      54  21  28 S9        29.94F
HOLYOKE        FAIR      61  19  20 W14       29.94F
FORT MORGAN    FAIR      55  15  20 W6        29.97F
$$

COZ086-089-092>099-182200-
...SOUTHEAST COLORADO...

CITY           SKY/WX    TMP DP  RH WIND       PRES   REMARKS
PUEBLO         FAIR      62   9  12 CALM      30.00F
LA JUNTA       FAIR      61  13  15 W8        30.01F
LAMAR          FAIR      59  11  15 W9        29.99F
SPRINGFIELD      N/A     64   0   7 SW7       30.01F
$$




USA.gov is the U.S. government's official web portal to all federal, state and local government web resources and services.